SCP
-0 -0 -0 -0 -0 -0 -0 0 0 0 0 0 0 0 0 0 0 0 0 0 0 0 0 0 0 0 0 0 0 0 0 0 0 0 0 0 0 0 0 0 0 0 0
-0 -0 -0 -0 -0 -0 -0 -0 0 0 0 0 0 0 0 0 0 0 0 0 0 0 0 0 0 0 0 0 0 0 0 0 0 0 0 0 0 0 0 0 0 0 0
-0 -0 -0 -0 -0 0 0 0 0 0 0 0 0 0 0 0 0 0 0 0 0 0 0 0 0 0 0 0 0 0 0 0 0 0 0 0 0 0 0 0 0 0 0
0 0 0 -0 0 0 0 0 0 0 0 0 0 0 0 0 0 0 0 0 0 0 0 0 0 0 0 0 0 0 0 0 0 0 0 0 0 0 0 0 0 0 0
0 0 0 0 0 0 0 0 0 0 0 0 0 0 0 0 0 0 0 0 0 0 0 0 0 0 0 0 0 0 0 0 0 0 0 0 0 0 0 0 0 0 0
0 0 0 0 0 0 0 0 0 0 0 0 0 0 0 0 0 0 0 0 0 0 0 0 0 0 0 0 0 0 0 0 0 0 0 0 0 0 0 0 0 0 0
0 0 0 0 0 0 0 0 0 0 0 0 0 0 0 0 0 0 0 0 0 0 0 0 0 0 0 0 0 0 0 0 0 0 0 0 0 0 0 0 0 0 0
0 0 0 0 0 0 0 0 0 0 0 0 0 0 0 0 0 0 0 0 0 0 0 0 0 0 0 0 0 0 0 0 0 0 0 0 0 0 0 0 0 0 0
0 0 0 0 0 0 0 0 0 0 0 0 0 0 0 0 0 0 0 0 0 0 0 0 0 0 0 0 0 0 0 0 0 0 0 0 0 0 0 0 0 0 0
0 0 0 0 0 0 0 0 0 0 0 0 0 0 0 0 0 0 0 0 0 0 0 0 0 0 0 0 0 0 0 0 0 0 0 0 0 0 0 0 0 0 0
0 0 0 0 0 0 0 0 0 0 0 0 0 0 0 0 0 0 0 0 0 0 0 0 0 0 0 0 0 0 0 0 0 0 0 0 0 0 0 0 0 0 0
0 0 0 0 0 0 0 0 0 0 0 0 0 0 0 0 0 0 0 0 0 0 0 0 0 0 0 0 0 0 0 0 0 0 0 0 0 0 0 0 0 0 0
0 0 0 0 0 0 0 0 0 0 0 0 0 0 0 0 0 0 0 0 0 0 0 0 0 0 0 0 0 0 0 0 0 0 0 0 0 0 0 0 0 0 0
0 0 0 0 0 0 0 0 0 0 0 0 0 0 0 0 0 0 0 0 0 0 0 0 0 0 0 0 0 0 0 0 0 0 0 0 0 0 0 0 0 0 0
0 0 0 0 0 0 0 0 0 0 0 0 0 0 0 0 0 0 0 0 0 0 0 0 0 0 0 0 0 0 0 0 0 0 0 0 0 0 0 0 0 0 0
0 0 0 0 0 0 0 0 0 0 0 0 0 0 0 0 0 0 0 0 0 0 0 0 0 0 0 0 0 0 0 0 0 0 0 0 0 0 0 0 0 0 0
0 0 0 0 0 0 0 0 0 0 0 0 0 0 0 0 0 0 0 0 0 0 0 0 0 0 0 0 0 0 0 0 0 0 0 0 0 0 0 0 0 0 0
0 0 0 0 0 0 0 0 0 0 0 0 0 0 0 0 0 0 0 0 0 0 0 0 0 0 0 0 0 0 0 0 0 0 0 0 0 0 0 0 0 0 0
0 0 0 0 0 0 0 0 0 0 0 0 0 0 0 0 0 0 0 0 0 0 0 0 0 0 0 0 0 0 0 0 0 0 0 0 0 0 0 0 0 0 0
0 0 0 0 0 0 0 0 0 0 0 0 0 0 0 0 0 0 0 0 0 0 0 0 0 0 0 0 0 0 0 0 0 0 0 0 0 0 0 0 0 0 0
0 0 0 0 0 0 0 0 0 0 0 0 0 0 0 0 0 0 0 0 0 0 0 0 0 0 0 0 0 0 0 0 0 0 0 0 0 0 0 0 0 0 0
0 0 0 0 0 0 0 0 0 0 0 0 0 0 0 0 0 0 0 0 0 0 0 0 0 0 0 0 0 0 0 0 0 0 0 0 0 0 0 0 0 0 0
0 0 0 0 0 0 0 0 0 0 0 0 0 0 0 0 0 0 0 0 0 0 0 0 0 0 0 0 0 0 0 0 0 0 0 0 0 0 0 0 0 0 0
0 0 0 0 0 0 0 0 0 0 0 0 0 0 0 0 0 0 0 0 0 0 0 0 0 0 0 0 0 0 0 0 0 0 0 0 0 0 0 0 0 0 0
0 0 0 0 0 0 0 0 0 0 0 0 0 0 0 0 0 0 0 0 0 0 0 0 0 0 0 0 0 0 0 0 0 0 0 0 0 0 0 0 0 0 0
0 0 0 0 0 0 0 0 0 0 0 0 0 0 0 0 0 0 0 0 0 0 0 0 0 0 0 0 0 0 0 0 0 0 0 0 0 0 0 0 0 0 0
Wind_Speed
3 2 2 1 2 2 2 2 2 3 3 2 2 3 4 4 3 3 2 8 8 8 9 9 8 9 9 8 8 8 8 8 7 7 6 6 6 6 5 5 4 4 4
3 3 2 2 2 2 2 2 2 2 2 1 2 2 3 3 3 3 2 4 8 8 9 9 9 9 9 9 8 8 8 8 7 6 6 5 5 5 5 5 5 5 4
4 3 3 2 2 2 2 2 2 2 2 1 1 2 2 3 3 3 3 2 3 7 8 9 9 9 9 9 9 8 8 8 7 7 6 6 5 5 5 5 5 5 5
5 4 3 3 2 2 2 2 2 2 1 1 1 1 1 2 3 3 3 3 3 3 6 8 8 8 9 10 9 9 9 9 8 8 8 7 7 6 6 6 6 5 6
5 4 3 3 3 2 2 2 2 2 1 1 2 1 1 1 2 3 4 4 3 3 3 5 7 8 9 10 9 9 10 10 9 9 8 8 8 7 7 7 7 6 6
5 5 3 4 4 3 2 2 2 2 1 2 1 1 0 1 1 2 3 3 3 4 4 4 3 4 8 8 8 9 10 10 9 9 9 8 8 7 7 7 6 6 6
6 5 4 4 4 4 4 4 3 2 1 2 2 1 1 0 1 2 2 3 4 4 4 4 3 3 3 5 6 8 9 9 9 9 8 7 7 6 6 6 6 5 5
6 6 5 4 4 3 4 4 3 2 2 2 3 2 1 2 1 1 2 3 4 3 4 4 4 4 3 2 3 6 7 8 8 7 7 7 6 6 5 5 5 5 5
6 5 6 5 5 4 4 5 4 5 3 1 1 3 3 3 1 1 1 2 2 2 3 3 4 4 4 3 3 4 5 5 6 6 5 6 5 5 4 4 4 3 3
5 6 6 6 5 4 4 5 5 3 4 3 1 1 1 3 2 0 1 0 0 1 2 2 2 3 3 2 3 3 4 4 4 4 4 4 4 4 3 3 3 3 2
5 6 6 5 5 5 5 5 5 4 4 4 3 2 2 1 1 2 1 0 1 1 0 1 1 1 2 2 2 3 3 3 3 2 3 3 3 3 3 2 2 1 1
3 4 5 5 5 5 5 5 5 6 4 4 3 3 3 3 3 3 2 1 1 1 1 1 0 0 1 2 3 4 4 4 4 4 5 6 5 5 5 5 5 5 5
3 5 5 5 5 5 5 5 5 5 5 5 5 3 3 3 3 3 3 2 1 0 1 2 1 1 1 1 1 4 5 7 7 7 7 8 8 9 9 9 9 8 8
4 5 5 5 5 5 5 5 4 5 4 5 6 4 3 3 3 3 4 4 2 1 0 0 1 2 2 2 4 5 6 9 9 9 9 9 10 11 11 11 11 11 11
4 5 5 5 5 5 5 5 4 5 5 5 4 4 3 3 3 3 3 4 5 3 2 1 1 2 2 3 4 5 5 9 10 10 10 10 11 11 11 11 11 11 11
4 4 5 5 5 5 5 5 4 4 5 4 3 4 3 2 2 3 3 3 3 4 3 1 1 2 2 4 7 6 7 11 11 10 10 11 11 11 10 10 10 10 10
4 5 5 5 5 5 5 5 5 5 5 4 4 4 4 3 2 2 2 2 3 3 4 2 2 2 4 5 5 5 6 6 7 11 10 10 10 10 10 10 9 9 9
3 4 4 4 4 5 5 6 6 5 5 5 4 4 4 3 3 2 2 3 3 3 5 5 2 2 4 4 5 6 5 6 6 10 11 10 10 10 10 10 9 9 8
2 3 3 4 4 4 4 5 5 5 5 5 5 5 4 4 3 2 3 3 3 4 4 6 4 2 3 3 4 6 7 5 6 8 10 10 10 10 10 9 8 8 7
3 3 3 3 3 4 4 4 5 4 4 4 3 4 4 4 5 5 4 5 5 6 6 6 5 3 3 3 4 4 5 4 5 5 7 7 9 11 10 9 8 8 6
2 2 2 2 2 3 3 5 5 5 5 4 4 3 4 5 6 5 5 6 6 6 6 6 5 4 3 3 3 3 5 5 4 3 4 4 4 4 4 5 6 6 5
2 2 2 2 2 2 4 6 6 5 5 5 5 4 4 5 7 8 9 8 8 7 7 5 4 5 4 3 3 4 4 4 3 1 2 3 2 2 2 2 4 5 5
3 3 3 3 3 3 5 6 7 6 5 5 5 4 4 5 7 7 10 11 9 8 7 5 6 5 4 4 5 5 3 3 3 1 2 2 2 1 1 2 4 4 4
3 3 3 3 4 4 6 7 8 5 5 4 4 5 6 6 6 8 9 9 8 7 6 5 5 4 4 4 4 5 5 5 4 2 1 2 1 1 1 2 4 5 5
3 3 3 4 4 4 5 7 7 5 5 5 5 5 6 7 9 12 11 11 9 8 11 12 11 10 10 9 8 6 5 5 3 2 1 1 1 1 1 2 3 5 6
4 4 4 3 4 4 5 6 7 5 6 5 5 5 8 8 10 10 10 10 10 7 7 8 9 9 8 8 7 4 5 4 3 2 1 1 1 0 0 1 2 3 3
Wind_Direction
158 153 142 127 114 108 112 111 113 112 107 114 133 142 145 148 151 156 174 181 178 175 171 173 171 169 168 168 168 168 166 165 165 167 170 170 170 170 172 171 170 173 174
164 164 161 158 152 141 139 135 133 126 119 118 132 149 155 155 158 161 173 189 186 182 182 183 182 179 179 179 179 178 179 178 177 176 178 179 183 185 186 190 192 194 192
174 172 173 178 177 154 143 123 115 115 130 133 138 144 151 160 166 171 176 181 190 196 193 193 192 190 191 192 191 191 191 190 188 189 192 194 196 197 200 205 210 207 203
176 171 178 187 171 149 142 136 126 121 125 134 141 160 159 162 180 181 183 188 192 201 204 203 202 202 203 204 203 202 202 201 197 198 203 207 208 209 210 214 219 216 214
178 174 183 182 165 154 153 163 136 140 151 154 153 156 173 175 191 194 196 202 200 201 204 216 214 212 215 217 216 214 212 209 206 208 212 215 217 216 215 220 224 225 225
180 174 182 179 167 160 164 157 141 126 136 147 134 91 32 213 189 209 213 209 209 212 210 218 221 224 226 228 226 225 221 218 212 213 217 219 220 218 219 224 229 231 231
180 175 182 175 173 177 177 162 140 135 126 123 99 57 14 9 216 228 219 213 219 219 215 217 216 220 230 236 236 233 229 225 219 217 220 220 219 214 215 222 228 230 233
183 186 180 180 178 171 165 166 155 142 142 149 138 119 29 341 311 239 213 217 224 215 219 221 217 216 225 237 244 238 233 232 232 221 215 216 217 213 214 220 221 223 227
186 184 184 180 178 176 183 185 175 161 162 171 167 150 157 218 282 330 257 226 212 208 220 215 216 216 215 223 237 245 237 233 232 227 219 211 209 209 213 214 216 215 218
188 189 183 181 179 180 186 193 183 170 156 173 180 179 166 159 161 233 348 358 185 222 229 221 219 212 206 210 215 218 226 224 225 221 206 187 182 181 187 194 207 214 214
195 194 188 182 182 186 191 191 179 178 173 174 175 166 151 125 140 156 194 336 46 5 235 215 212 207 200 198 204 206 200 185 175 160 146 139 139 143 145 152 156 143 118
194 195 189 186 186 188 193 195 190 188 188 183 182 175 170 169 180 170 179 192 177 36 52 51 82 214 189 179 181 161 154 144 135 119 105 100 100 100 98 93 87 76 64
195 202 193 190 192 196 196 188 186 192 190 188 191 197 196 192 166 161 159 164 161 115 63 49 30 32 85 103 138 125 120 120 115 109 101 96 94 91 88 83 80 75 69
201 197 195 196 198 195 196 188 189 197 192 195 198 191 194 200 184 174 167 157 154 151 106 92 47 50 66 81 85 98 104 109 109 106 102 98 96 94 90 86 81 77 72
196 194 196 196 199 196 194 186 196 200 188 196 196 190 195 200 193 193 178 170 165 177 194 173 127 55 77 85 84 96 101 104 104 104 102 100 99 97 94 90 85 80 74
195 190 195 195 196 196 192 187 191 192 182 190 189 188 199 202 193 190 187 185 176 164 164 133 105 78 90 100 91 93 96 97 95 100 101 100 100 99 95 90 85 80 74
195 198 196 192 193 193 187 182 187 184 184 188 187 185 198 190 181 184 172 173 169 149 147 124 85 76 81 96 92 92 93 91 92 92 96 97 96 96 94 89 84 78 72
198 196 185 183 193 192 185 183 187 185 185 189 190 180 190 176 168 166 157 162 157 148 143 141 121 86 78 99 99 93 88 89 90 87 89 91 92 93 91 88 81 74 68
181 183 175 182 192 190 182 184 181 181 182 183 183 179 176 161 159 149 143 140 133 125 122 134 129 102 88 94 93 87 81 74 85 86 84 83 87 90 89 88 83 76 68
167 179 180 182 183 180 177 173 169 167 165 163 163 162 160 161 163 153 143 136 127 120 118 123 123 116 103 96 105 108 96 78 75 75 74 77 81 82 83 80 77 73 65
159 160 154 157 162 169 175 166 160 157 153 145 141 145 145 147 150 148 144 141 138 132 131 132 132 124 128 131 136 132 119 105 75 65 79 69 71 71 68 65 64 60 56
123 123 134 146 151 162 151 155 153 150 148 145 139 127 119 126 125 121 124 128 136 143 148 144 144 145 151 144 133 139 137 128 112 47 81 68 56 65 51 55 40 39 36
117 111 111 119 120 122 129 132 139 140 137 138 138 134 120 112 113 113 103 97 94 103 126 142 143 150 150 159 146 135 123 109 114 113 108 80 40 41 11 18 15 18 16
120 116 112 112 112 112 120 123 119 120 120 117 123 131 127 120 118 117 107 93 80 70 84 99 116 117 119 129 130 129 121 104 87 59 70 96 40 14 356 349 355 3 3
111 108 108 114 118 115 118 123 122 116 109 103 102 108 117 116 118 118 112 107 95 81 77 87 93 97 104 113 121 118 121 123 108 71 41 105 93 6 335 330 344 356 353
117 112 101 99 111 115 116 122 124 124 120 113 101 100 109 119 123 122 122 123 117 110 105 94 83 77 81 87 93 113 137 136 128 125 116 116 113 95 29 330 328 340 348